SCP
-0 -1 -0 -0 -0 -0 -0 -1 -1 -0 -0 -0 -0 -0 -0 -0 -0 -0 -0 -0 -0 -0 -0 -0 -0 -0 -0 0 0 0 0 0 0 0 0 0 -0 -0 -0 -0 -0 -0 -0
-1 -0 -0 -0 -0 -0 -0 -0 -0 -0 -0 -0 -0 -0 -0 -0 -0 -0 -0 -0 -0 -0 -0 -0 -0 -0 -0 -0 -0 0 0 0 0 0 0 0 -0 -0 -0 -0 -0 -0 -0
-1 -0 -0 -0 -0 -0 -0 -0 -0 -0 -0 -0 -0 -0 -0 -0 -0 -0 -0 -0 -0 -0 -0 -0 -0 -0 -0 -0 -0 -0 0 0 0 -0 -0 -0 -0 -0 -0 -0 -0 -0 -0
-0 -0 -0 -0 -0 -0 -0 0 -0 -0 -0 -0 -0 -0 -0 -0 -0 -0 -0 -0 -0 -0 -0 -0 -0 -0 -0 0 -0 -0 -0 -0 -0 0 -0 -0 -0 0 -0 -0 -0 -0 -0
-0 -0 -0 -0 -0 -0 -0 -0 -0 -0 -0 -0 -0 -0 -0 -0 -0 -0 0 0 -0 -0 -0 0 0 0 0 -0 -0 -0 -0 -0 -0 -0 -0 -0 -0 -0 0 -0 0 0 -0
0 -0 -0 -0 -0 -0 -0 -0 -0 -0 -0 -0 -0 -0 0 0 0 0 0 0 0 0 0 0 0 0 0 0 0 -0 -0 -0 -0 0 -0 -0 0 0 0 0 -0 -0 0
0 0 0 0 -0 -0 -0 -0 -0 -0 -0 -0 -0 -0 -0 0 0 0 0 0 0 0 0 0 0 0 0 0 0 0 -0 -0 -0 -0 -0 0 0 0 0 0 0 0 0
0 0 0 0 0 0 0 0 0 0 0 0 0 0 0 0 0 0 0 0 0 0 0 0 0 0 0 0 0 0 0 0 0 0 0 0 0 0 0 0 0 0 0
0 0 0 0 0 0 0 0 0 0 0 0 0 0 0 0 0 0 0 0 0 0 0 0 0 0 0 0 0 0 0 0 0 0 0 0 0 0 0 0 0 0 0
1 0 0 0 0 0 0 0 0 0 0 0 0 0 0 0 0 0 0 0 0 0 0 0 0 0 0 0 0 0 0 0 0 0 0 0 0 0 0 0 0 0 0
1 1 0 0 0 0 0 0 1 0 0 0 0 0 0 0 0 0 0 1 0 0 0 0 0 0 0 0 0 0 0 0 0 0 0 0 0 0 0 0 0 0 0
1 1 0 0 0 0 0 0 0 0 0 0 0 0 0 0 0 0 0 1 0 0 0 0 0 0 0 0 0 0 0 0 0 0 0 1 0 0 0 0 0 0 0
1 1 1 1 0 0 0 0 0 0 0 0 0 0 0 0 0 0 0 0 0 0 0 0 0 0 0 0 0 0 0 0 0 0 0 1 0 0 0 0 0 1 1
1 1 2 1 0 -0 0 0 0 0 0 0 0 0 0 0 0 0 0 0 0 0 0 0 0 0 0 0 0 0 0 0 0 0 0 0 0 0 0 0 0 1 1
1 1 1 2 1 0 0 0 0 0 0 0 1 1 0 0 0 0 0 0 0 0 0 0 0 0 0 0 0 0 0 0 0 0 0 0 0 0 0 0 0 0 1
1 1 1 1 1 0 0 1 0 0 1 1 1 1 0 1 1 0 0 0 0 0 0 1 0 0 0 0 0 1 0 0 0 1 0 0 0 0 0 0 0 0 0
1 1 1 1 1 1 0 1 1 1 0 1 1 1 1 0 1 1 1 1 0 1 1 1 2 2 2 1 2 2 0 0 2 1 0 0 0 0 1 1 0 0 0
1 1 1 1 1 1 1 2 1 1 1 2 1 2 1 1 1 2 1 2 3 6 4 4 3 4 3 2 2 2 2 2 2 1 0 0 0 0 1 1 1 0 0
0 1 1 1 1 1 1 2 1 4 2 2 3 2 2 1 2 2 4 5 3 2 0 0 0 0 2 2 2 2 1 1 2 0 -0 0 0 0 0 0 0 0 0
1 1 1 1 2 2 2 3 3 2 2 5 5 5 4 3 2 3 3 2 1 0 0 0 0 0 0 0 1 1 1 0 0 0 0 0 0 0 0 0 0 0 0
2 2 2 2 3 3 3 3 3 3 3 4 8 7 5 3 3 3 2 1 1 0 0 0 0 0 0 0 0 0 0 -0 0 0 0 0 0 0 0 0 0 0 0
2 2 2 3 4 4 4 4 4 4 6 7 6 5 3 2 2 2 1 0 0 0 0 0 0 0 0 0 -0 -0 -0 -0 0 1 0 0 0 0 0 0 0 0 0
1 2 3 2 3 4 4 3 6 5 6 5 4 2 2 2 1 1 1 0 0 0 0 0 0 -0 -0 -0 0 0 0 0 0 0 0 0 0 0 0 0 0 0 0
0 1 2 2 2 3 3 5 4 4 4 5 4 4 2 1 1 0 0 0 0 -0 0 0 0 0 0 -0 0 0 0 0 0 0 0 0 0 0 0 0 0 0 0
0 1 2 2 2 3 4 4 4 3 5 5 4 2 1 1 0 0 0 0 0 0 1 0 0 0 0 0 0 0 0 0 0 0 0 0 0 0 0 0 0 0 0
0 1 2 3 3 3 4 3 5 5 5 4 3 2 1 1 1 0 0 0 0 0 0 0 0 0 0 0 0 0 0 0 0 0 0 0 0 0 0 0 0 0 0
Wind_Speed_500mb
40 51 49 43 41 39 34 33 36 38 37 33 29 23 19 21 23 24 26 26 28 31 30 26 20 21 22 19 18 20 20 19 19 19 20 19 20 23 24 27 31 7 15
50 55 48 44 41 37 34 34 39 39 38 34 30 24 21 23 25 27 28 27 27 30 28 24 19 17 17 15 16 18 19 20 20 21 22 21 21 22 22 22 23 14 17
50 59 50 45 43 36 34 35 39 40 38 34 29 23 21 24 27 30 29 25 26 28 28 22 19 14 15 16 17 18 20 21 22 23 23 17 13 18 20 20 17 16 16
48 57 52 47 44 38 35 36 39 39 37 31 27 23 22 24 27 30 29 25 26 26 24 21 18 15 15 16 16 18 20 22 25 29 26 16 5 13 17 18 16 14 14
45 52 52 49 44 40 36 36 38 36 33 29 27 23 23 25 27 30 29 26 26 25 22 19 18 17 17 17 17 19 19 21 27 26 13 11 6 3 10 13 15 12 7
42 44 50 49 44 40 37 35 34 33 30 28 26 24 24 25 28 30 27 24 23 22 21 20 20 20 20 19 19 20 20 20 24 18 11 14 12 16 8 9 8 8 6
41 41 53 50 46 42 38 36 34 31 27 27 26 25 25 27 29 29 26 22 21 20 19 20 21 22 21 22 23 21 19 19 16 8 11 11 14 16 11 9 8 5 3
42 40 56 52 47 43 40 36 32 28 26 26 26 25 25 26 29 29 25 22 20 20 21 21 23 24 25 26 27 24 20 20 16 6 12 11 25 20 15 13 10 9 9
40 41 56 55 51 46 41 36 32 28 23 23 24 25 25 27 29 28 25 22 20 19 21 23 24 25 26 28 29 30 26 23 19 14 16 15 24 23 18 16 15 14 15
42 43 49 53 53 50 46 39 34 28 24 22 23 24 25 26 27 27 26 25 22 21 21 22 24 26 27 28 30 31 29 24 23 10 22 27 33 23 20 20 21 22 23
43 45 48 48 52 46 43 44 37 32 28 26 26 26 26 28 29 29 27 25 23 23 22 23 25 27 29 29 31 32 32 29 23 24 24 35 38 30 26 26 27 26 27
50 49 49 49 47 45 38 45 44 39 36 33 31 31 30 25 24 23 23 26 25 26 25 26 28 30 31 25 27 31 36 29 28 30 30 37 42 41 35 36 36 36 37
52 49 50 49 50 47 39 39 37 35 35 37 34 32 29 22 22 23 22 27 32 29 25 25 28 30 28 25 26 30 22 26 27 31 32 42 44 51 48 44 41 41 42
53 51 50 48 51 50 39 34 35 32 31 28 28 30 27 24 24 22 21 18 21 23 20 24 19 21 22 25 26 28 29 30 28 28 30 40 47 51 49 45 41 37 40
51 51 52 52 54 57 46 35 36 33 31 28 29 32 31 26 25 22 21 20 20 17 24 20 23 23 23 26 26 27 30 30 30 32 31 42 44 49 42 37 36 39 46
52 51 51 48 50 52 46 38 38 36 31 31 30 31 35 28 26 22 21 18 19 21 21 18 21 24 22 21 26 23 31 32 25 31 29 36 43 44 46 45 48 51 49
52 50 46 49 45 47 48 40 36 32 32 31 31 34 32 33 26 23 19 18 18 20 20 24 17 28 32 33 25 39 44 38 7 22 34 36 42 45 44 46 50 47 47
53 48 47 45 45 46 48 46 37 33 32 32 32 37 34 35 32 27 21 25 30 22 23 21 22 20 24 28 24 25 31 27 25 26 48 44 40 40 37 37 44 52 43
54 48 44 47 46 55 44 41 39 35 36 32 33 31 34 35 34 34 37 31 40 34 28 18 16 16 5 14 20 18 13 15 26 47 45 46 38 38 31 33 42 47 37
52 46 45 45 46 47 43 56 48 33 34 33 31 36 32 34 31 34 38 40 43 37 27 13 3 7 10 10 17 7 0 11 42 47 44 38 34 33 34 26 33 32 37
52 52 50 47 45 45 53 54 40 33 31 30 45 41 39 36 35 35 40 42 42 36 14 4 40 28 13 9 10 20 15 34 50 49 24 27 25 24 22 35 34 31 34
54 53 49 57 53 53 55 45 33 32 34 30 32 33 35 32 28 29 31 35 35 33 35 46 21 12 15 9 30 34 44 38 29 38 18 25 23 25 29 34 42 45 40
56 53 48 39 54 59 45 38 40 36 33 29 28 27 28 27 24 25 25 26 22 21 8 18 21 20 28 26 25 24 19 23 38 27 22 21 36 31 38 44 35 41 46
56 50 44 42 47 45 45 43 43 37 31 30 30 23 24 23 20 15 17 17 18 18 19 19 28 29 39 41 29 20 28 29 20 32 31 33 41 41 45 52 49 52 51
54 50 45 42 41 41 48 43 39 30 26 26 28 24 16 26 22 24 23 17 24 14 27 27 28 43 45 31 23 20 23 24 30 35 50 55 44 44 44 49 45 50 46
51 50 50 48 39 43 51 44 41 34 33 32 32 22 21 28 35 26 24 26 28 27 30 32 31 24 27 30 31 29 26 26 30 35 41 46 57 53 42 44 45 43 42
Wind_Direction_500mb
160 166 168 168 167 166 164 167 177 176 173 168 163 158 149 142 142 145 144 143 147 153 155 153 144 143 144 140 136 141 144 141 138 131 122 123 120 112 110 107 91 80 95
161 166 168 168 167 167 166 169 177 178 176 173 170 166 156 150 151 153 151 150 158 165 166 165 154 148 155 152 148 146 144 137 134 128 123 120 112 109 104 111 113 122 96
159 166 169 169 167 167 167 167 176 179 179 178 177 172 163 159 159 160 158 157 163 169 176 178 180 170 168 167 160 153 145 139 134 122 112 79 98 108 108 105 99 93 86
158 167 171 170 169 168 167 165 172 178 180 182 183 178 172 168 167 167 167 165 166 169 174 178 185 183 174 172 168 159 149 142 128 113 90 128 143 115 116 111 103 95 88
157 166 174 171 171 168 166 162 170 177 182 188 190 187 180 176 175 175 176 175 175 178 183 189 194 189 182 177 175 166 157 148 126 96 108 163 183 142 127 126 127 115 95
159 161 172 172 171 170 167 164 169 176 184 191 193 191 186 184 181 181 182 183 187 189 192 193 194 191 188 185 180 169 162 149 120 83 186 212 159 230 169 150 135 123 112
158 173 171 173 173 172 170 169 172 176 184 187 190 193 191 188 187 187 187 190 194 197 199 197 197 196 194 192 186 180 176 161 137 196 215 219 233 210 203 193 182 180 200
162 173 175 175 176 175 174 172 172 174 179 185 189 192 194 193 192 192 195 198 199 203 206 206 204 203 202 199 196 197 195 184 148 217 218 229 228 227 220 223 224 232 238
169 168 176 177 178 179 180 176 174 175 177 182 186 189 193 195 197 198 202 206 210 215 216 214 212 212 211 209 209 209 210 208 198 207 231 234 254 236 237 247 257 265 267
174 172 171 177 181 182 184 183 180 180 179 183 186 189 191 197 201 205 209 215 222 227 228 227 225 222 222 220 220 221 222 221 204 228 246 244 253 255 259 267 274 278 282
178 178 176 177 180 177 184 187 186 185 185 186 189 190 193 199 205 211 217 225 228 228 233 235 233 233 233 233 234 233 233 234 246 258 251 249 266 266 268 271 273 278 281
181 182 180 179 177 176 184 192 190 192 192 194 196 196 195 191 210 202 225 234 230 235 235 236 234 233 236 243 258 249 244 246 247 252 256 260 265 271 268 271 278 279 280
185 181 182 180 179 179 185 194 187 193 196 200 201 207 186 196 214 203 222 246 236 237 247 251 246 241 239 234 243 259 260 256 254 257 262 264 269 275 274 274 279 281 282
186 183 180 182 182 179 187 194 191 197 198 198 203 207 188 195 213 211 214 234 235 238 238 238 250 244 244 249 247 250 256 255 257 261 266 273 277 279 275 271 274 278 283
189 186 182 185 185 182 186 194 190 198 201 205 210 213 200 207 210 215 215 221 234 237 243 235 242 245 243 248 253 254 260 260 264 265 264 279 284 290 282 274 272 283 286
188 190 184 185 188 187 187 195 193 199 207 204 212 218 211 213 217 216 222 229 230 236 233 246 244 247 255 254 261 253 260 256 261 271 276 277 287 288 291 283 282 286 285
186 192 189 186 191 192 188 194 197 204 204 209 213 213 217 216 216 214 228 231 239 240 237 260 266 244 251 252 259 243 266 324 241 278 284 283 284 294 291 290 295 288 289
192 191 187 187 196 198 194 202 195 207 208 218 219 222 214 217 211 220 224 221 222 221 235 233 238 255 263 268 273 276 285 302 313 288 289 280 282 280 284 289 291 293 293
191 187 193 191 195 206 192 200 199 208 206 213 224 224 219 213 221 220 218 222 225 219 218 215 211 218 344 310 290 291 286 321 321 279 271 274 277 281 284 280 287 291 307
186 195 194 196 197 220 186 204 205 205 208 204 217 211 219 217 219 224 232 235 243 234 228 249 250 173 58 350 0 353 260 296 301 291 267 275 280 283 281 279 286 300 298
192 197 194 198 200 209 192 206 203 202 207 205 212 224 229 227 228 237 246 246 239 228 199 353 315 268 241 258 332 316 317 278 273 273 269 270 271 275 283 299 299 299 294
191 193 193 205 192 207 208 199 202 200 200 202 211 211 224 228 230 236 248 253 247 244 249 294 265 232 153 192 265 274 282 288 295 229 274 272 285 282 293 289 280 291 289
192 192 190 192 191 202 202 191 196 194 200 209 204 216 212 208 227 241 243 250 254 260 232 161 167 202 269 264 268 281 294 301 309 296 300 291 290 293 288 299 288 288 282
193 191 186 189 189 194 191 193 202 192 192 202 196 188 200 188 192 193 187 192 160 160 176 207 227 242 261 277 276 264 257 280 303 307 297 290 295 295 287 291 289 290 289
191 185 183 186 186 185 189 195 193 189 188 188 181 200 163 157 145 156 165 177 200 187 224 236 255 259 264 266 254 268 278 275 284 276 287 295 292 291 289 289 290 293 301
190 183 175 183 177 182 184 190 189 188 184 166 175 164 162 177 194 195 208 221 236 243 254 257 258 259 258 268 269 270 280 279 282 285 287 289 297 301 296 295 300 299 298
Wind_Speed_850mb
40 51 49 43 41 39 34 33 36 38 37 33 29 23 19 21 23 24 26 26 28 31 30 26 20 21 22 19 18 20 20 19 19 19 20 19 20 23 24 27 31 7 15
50 55 48 44 41 37 34 34 39 39 38 34 30 24 21 23 25 27 28 27 27 30 28 24 19 17 17 15 16 18 19 20 20 21 22 21 21 22 22 22 23 14 17
50 59 50 45 43 36 34 35 39 40 38 34 29 23 21 24 27 30 29 25 26 28 28 22 19 14 15 16 17 18 20 21 22 23 23 17 13 18 20 20 17 16 16
48 57 52 47 44 38 35 36 39 39 37 31 27 23 22 24 27 30 29 25 26 26 24 21 18 15 15 16 16 18 20 22 25 29 26 16 5 13 17 18 16 14 14
45 52 52 49 44 40 36 36 38 36 33 29 27 23 23 25 27 30 29 26 26 25 22 19 18 17 17 17 17 19 19 21 27 26 13 11 6 3 10 13 15 12 7
42 44 50 49 44 40 37 35 34 33 30 28 26 24 24 25 28 30 27 24 23 22 21 20 20 20 20 19 19 20 20 20 24 18 11 14 12 16 8 9 8 8 6
41 41 53 50 46 42 38 36 34 31 27 27 26 25 25 27 29 29 26 22 21 20 19 20 21 22 21 22 23 21 19 19 16 8 11 11 14 16 11 9 8 5 3
42 40 56 52 47 43 40 36 32 28 26 26 26 25 25 26 29 29 25 22 20 20 21 21 23 24 25 26 27 24 20 20 16 6 12 11 25 20 15 13 10 9 9
40 41 56 55 51 46 41 36 32 28 23 23 24 25 25 27 29 28 25 22 20 19 21 23 24 25 26 28 29 30 26 23 19 14 16 15 24 23 18 16 15 14 15
42 43 49 53 53 50 46 39 34 28 24 22 23 24 25 26 27 27 26 25 22 21 21 22 24 26 27 28 30 31 29 24 23 10 22 27 33 23 20 20 21 22 23
43 45 48 48 52 46 43 44 37 32 28 26 26 26 26 28 29 29 27 25 23 23 22 23 25 27 29 29 31 32 32 29 23 24 24 35 38 30 26 26 27 26 27
50 49 49 49 47 45 38 45 44 39 36 33 31 31 30 25 24 23 23 26 25 26 25 26 28 30 31 25 27 31 36 29 28 30 30 37 42 41 35 36 36 36 37
52 49 50 49 50 47 39 39 37 35 35 37 34 32 29 22 22 23 22 27 32 29 25 25 28 30 28 25 26 30 22 26 27 31 32 42 44 51 48 44 41 41 42
53 51 50 48 51 50 39 34 35 32 31 28 28 30 27 24 24 22 21 18 21 23 20 24 19 21 22 25 26 28 29 30 28 28 30 40 47 51 49 45 41 37 40
51 51 52 52 54 57 46 35 36 33 31 28 29 32 31 26 25 22 21 20 20 17 24 20 23 23 23 26 26 27 30 30 30 32 31 42 44 49 42 37 36 39 46
52 51 51 48 50 52 46 38 38 36 31 31 30 31 35 28 26 22 21 18 19 21 21 18 21 24 22 21 26 23 31 32 25 31 29 36 43 44 46 45 48 51 49
52 50 46 49 45 47 48 40 36 32 32 31 31 34 32 33 26 23 19 18 18 20 20 24 17 28 32 33 25 39 44 38 7 22 34 36 42 45 44 46 50 47 47
53 48 47 45 45 46 48 46 37 33 32 32 32 37 34 35 32 27 21 25 30 22 23 21 22 20 24 28 24 25 31 27 25 26 48 44 40 40 37 37 44 52 43
54 48 44 47 46 55 44 41 39 35 36 32 33 31 34 35 34 34 37 31 40 34 28 18 16 16 5 14 20 18 13 15 26 47 45 46 38 38 31 33 42 47 37
52 46 45 45 46 47 43 56 48 33 34 33 31 36 32 34 31 34 38 40 43 37 27 13 3 7 10 10 17 7 0 11 42 47 44 38 34 33 34 26 33 32 37
52 52 50 47 45 45 53 54 40 33 31 30 45 41 39 36 35 35 40 42 42 36 14 4 40 28 13 9 10 20 15 34 50 49 24 27 25 24 22 35 34 31 34
54 53 49 57 53 53 55 45 33 32 34 30 32 33 35 32 28 29 31 35 35 33 35 46 21 12 15 9 30 34 44 38 29 38 18 25 23 25 29 34 42 45 40
56 53 48 39 54 59 45 38 40 36 33 29 28 27 28 27 24 25 25 26 22 21 8 18 21 20 28 26 25 24 19 23 38 27 22 21 36 31 38 44 35 41 46
56 50 44 42 47 45 45 43 43 37 31 30 30 23 24 23 20 15 17 17 18 18 19 19 28 29 39 41 29 20 28 29 20 32 31 33 41 41 45 52 49 52 51
54 50 45 42 41 41 48 43 39 30 26 26 28 24 16 26 22 24 23 17 24 14 27 27 28 43 45 31 23 20 23 24 30 35 50 55 44 44 44 49 45 50 46
51 50 50 48 39 43 51 44 41 34 33 32 32 22 21 28 35 26 24 26 28 27 30 32 31 24 27 30 31 29 26 26 30 35 41 46 57 53 42 44 45 43 42
Wind_Direction_850mb
160 166 168 168 167 166 164 167 177 176 173 168 163 158 149 142 142 145 144 143 147 153 155 153 144 143 144 140 136 141 144 141 138 131 122 123 120 112 110 107 91 80 95
161 166 168 168 167 167 166 169 177 178 176 173 170 166 156 150 151 153 151 150 158 165 166 165 154 148 155 152 148 146 144 137 134 128 123 120 112 109 104 111 113 122 96
159 166 169 169 167 167 167 167 176 179 179 178 177 172 163 159 159 160 158 157 163 169 176 178 180 170 168 167 160 153 145 139 134 122 112 79 98 108 108 105 99 93 86
158 167 171 170 169 168 167 165 172 178 180 182 183 178 172 168 167 167 167 165 166 169 174 178 185 183 174 172 168 159 149 142 128 113 90 128 143 115 116 111 103 95 88
157 166 174 171 171 168 166 162 170 177 182 188 190 187 180 176 175 175 176 175 175 178 183 189 194 189 182 177 175 166 157 148 126 96 108 163 183 142 127 126 127 115 95
159 161 172 172 171 170 167 164 169 176 184 191 193 191 186 184 181 181 182 183 187 189 192 193 194 191 188 185 180 169 162 149 120 83 186 212 159 230 169 150 135 123 112
158 173 171 173 173 172 170 169 172 176 184 187 190 193 191 188 187 187 187 190 194 197 199 197 197 196 194 192 186 180 176 161 137 196 215 219 233 210 203 193 182 180 200
162 173 175 175 176 175 174 172 172 174 179 185 189 192 194 193 192 192 195 198 199 203 206 206 204 203 202 199 196 197 195 184 148 217 218 229 228 227 220 223 224 232 238
169 168 176 177 178 179 180 176 174 175 177 182 186 189 193 195 197 198 202 206 210 215 216 214 212 212 211 209 209 209 210 208 198 207 231 234 254 236 237 247 257 265 267
174 172 171 177 181 182 184 183 180 180 179 183 186 189 191 197 201 205 209 215 222 227 228 227 225 222 222 220 220 221 222 221 204 228 246 244 253 255 259 267 274 278 282
178 178 176 177 180 177 184 187 186 185 185 186 189 190 193 199 205 211 217 225 228 228 233 235 233 233 233 233 234 233 233 234 246 258 251 249 266 266 268 271 273 278 281
181 182 180 179 177 176 184 192 190 192 192 194 196 196 195 191 210 202 225 234 230 235 235 236 234 233 236 243 258 249 244 246 247 252 256 260 265 271 268 271 278 279 280
185 181 182 180 179 179 185 194 187 193 196 200 201 207 186 196 214 203 222 246 236 237 247 251 246 241 239 234 243 259 260 256 254 257 262 264 269 275 274 274 279 281 282
186 183 180 182 182 179 187 194 191 197 198 198 203 207 188 195 213 211 214 234 235 238 238 238 250 244 244 249 247 250 256 255 257 261 266 273 277 279 275 271 274 278 283
189 186 182 185 185 182 186 194 190 198 201 205 210 213 200 207 210 215 215 221 234 237 243 235 242 245 243 248 253 254 260 260 264 265 264 279 284 290 282 274 272 283 286
188 190 184 185 188 187 187 195 193 199 207 204 212 218 211 213 217 216 222 229 230 236 233 246 244 247 255 254 261 253 260 256 261 271 276 277 287 288 291 283 282 286 285
186 192 189 186 191 192 188 194 197 204 204 209 213 213 217 216 216 214 228 231 239 240 237 260 266 244 251 252 259 243 266 324 241 278 284 283 284 294 291 290 295 288 289
192 191 187 187 196 198 194 202 195 207 208 218 219 222 214 217 211 220 224 221 222 221 235 233 238 255 263 268 273 276 285 302 313 288 289 280 282 280 284 289 291 293 293
191 187 193 191 195 206 192 200 199 208 206 213 224 224 219 213 221 220 218 222 225 219 218 215 211 218 344 310 290 291 286 321 321 279 271 274 277 281 284 280 287 291 307
186 195 194 196 197 220 186 204 205 205 208 204 217 211 219 217 219 224 232 235 243 234 228 249 250 173 58 350 0 353 260 296 301 291 267 275 280 283 281 279 286 300 298
192 197 194 198 200 209 192 206 203 202 207 205 212 224 229 227 228 237 246 246 239 228 199 353 315 268 241 258 332 316 317 278 273 273 269 270 271 275 283 299 299 299 294
191 193 193 205 192 207 208 199 202 200 200 202 211 211 224 228 230 236 248 253 247 244 249 294 265 232 153 192 265 274 282 288 295 229 274 272 285 282 293 289 280 291 289
192 192 190 192 191 202 202 191 196 194 200 209 204 216 212 208 227 241 243 250 254 260 232 161 167 202 269 264 268 281 294 301 309 296 300 291 290 293 288 299 288 288 282
193 191 186 189 189 194 191 193 202 192 192 202 196 188 200 188 192 193 187 192 160 160 176 207 227 242 261 277 276 264 257 280 303 307 297 290 295 295 287 291 289 290 289
191 185 183 186 186 185 189 195 193 189 188 188 181 200 163 157 145 156 165 177 200 187 224 236 255 259 264 266 254 268 278 275 284 276 287 295 292 291 289 289 290 293 301
190 183 175 183 177 182 184 190 189 188 184 166 175 164 162 177 194 195 208 221 236 243 254 257 258 259 258 268 269 270 280 279 282 285 287 289 297 301 296 295 300 299 298